Flag for Poland Weather past 2 weeks in Legnica, Poland

Now
65 °F

Light rain. Overcast.


Feels Like: 65 °F
Forecast: 63 / 89 °F
Wind: 1 mph from West

Location: Wroclaw Ii

Current Time: Aug 1, 2014 at 8:35:37 AM

Latest Report: Aug 1, 2014 at 7:00 AM


Visibility: 6 mi

Pressure: 29.97 "Hg

Humidity: 92%

Dew point: 63 °F

Location of LegnicaLocation

Historic Weather in Legnica — Graph

°F

Legnica temperature yesterday

Maximum temperature yesterday: 73 °F (at 6:00 PM)
Minimum temperature yesterday: 66 °F (at 9:00 AM)
Average temperature yesterday: 69 °F

Past Weeks' High & Low Weather Summary

 TemperatureHumidityPressure
High92 °F (Jul 20, 5:00 PM)98% (Jul 26, 6:00 AM)30.16 "Hg (Jul 26, 6:00 AM)
Low61 °F (Jul 19, 5:00 AM)32% (Jul 20, 3:00 PM)29.69 "Hg (Jul 30, 6:00 PM)
Average74 °F70%29.92 "Hg
* Reported Jul 17 7:00 AM — Aug 1 7:00 AM, Legnica, Weather by CustomWeather, © 2014

Note: Actual official high and low records may vary slightly from our data, if they occured in-between our weather recording intervals... More about our weather records

Advertising

Legnica weather history for previous 24 hours

 ConditionsComfort  
Time TempWeatherWind HumidityBarometerVisibility
7:00 AM
Aug 1
65 °FLight rain. Overcast.1 mph92%29.97 "Hg6 mi
6:00 AM65 °FLight rain. Overcast.1 mph91%29.96 "Hg12 mi
5:00 AM65 °FLight rain. Overcast.1 mph90%29.96 "Hg19 mi
4:00 AM66 °FLight rain. Overcast.1 mph89%29.96 "Hg19 mi
3:00 AM67 °FLight rain. Overcast.1 mph86%29.96 "Hg16 mi
2:00 AM67 °FOvercast.1 mph85%29.96 "Hg19 mi
1:00 AM67 °FOvercast.2 mph84%29.97 "Hg19 mi
12:00 AM68 °FOvercast.2 mph83%29.97 "Hg19 mi
11:00 PM
Jul 31
68 °FOvercast.1 mph85%29.96 "Hg19 mi
10:00 PM69 °FOvercast.1 mph84%29.96 "Hg19 mi
9:00 PM69 °FPassing clouds.28 mph82%29.95 "Hg2 mi
8:00 PM70 °FOvercast.2 mph78%29.94 "Hg19 mi
7:00 PM72 °FOvercast.2 mph76%29.93 "Hg19 mi
6:00 PM73 °FLight rain. Overcast.1 mph80%29.92 "Hg12 mi
5:00 PMN/APassing clouds.17 mphN/AN/A2 mi
4:00 PM69 °FLight rain. Low clouds.2 mph90%29.93 "Hg6 mi
3:00 PM68 °FLight rain. Low clouds.2 mph93%29.93 "Hg5 mi
2:00 PM67 °FLight rain. Low clouds.2 mph91%29.93 "Hg6 mi
1:00 PM67 °FLight rain. Overcast.3 mph90%29.93 "Hg7 mi
12:00 PM67 °FSprinkles. Overcast.5 mph84%29.93 "Hg12 mi
11:00 AM67 °FLight rain. Overcast.5 mph82%29.92 "Hg14 mi
10:00 AMN/APassing clouds.21 mphN/AN/A3 mi
9:00 AM66 °FLight rain. Passing clouds.25 mph95%29.88 "Hg10 mi
8:00 AM68 °FDrizzle. Low clouds.3 mph94%29.86 "Hg2 mi
Weather by CustomWeather, © 2014

See weather overviewHow to use our weather pages